Location: Peterborough
(44.3091°N, 78.3197°W)
Time: 04:39:58
(UTC-04:00)

Vanguard 1 Rocket - Pass Details

Date: 10 December 2023
Orbit: 649 x 4220 km, 34.3° (Epoch: 07 September)

Event Time Altitude Azimuth Distance (km) Brightness Sun altitude
Exits shadow 03:03:25 37° 189° (S) 5,277 10.9 -48.0°
Maximum altitude 03:11:20 44° 154° (SSE) 4,565 10.7 -46.6°
Drops below altitude 10° 03:27:38 10° 90° (E) 5,392 11.9 -43.8°
Sets 03:31:12 0° 84° (E) 5,997 12.4 -43.1°
